Weather History for Fort Drum, NY

Change the Weather History Date:

Tuesday, January 22, 2013

  Actual Average Record
Temperature  
Mean Temperature 5 °F -  
Max Temperature 10 °F 20 °F 44 °F (1997)
Min Temperature -1 °F 4 °F -25 °F (2014)
Degree Days  
Heating Degree Days 60    
Moisture  
Dew Point 0 °F    
Average Humidity 77    
Maximum Humidity 92    
Minimum Humidity 40    
Precipitation  
Precipitation 0.00 in - - ()
Sea Level Pressure  
Sea Level Pressure 29.93 in    
Wind  
Wind Speed 3 mph (WSW)    
Max Wind Speed 15 mph    
Max Gust Speed 23 mph    
Visibility 8 miles    
Events Snow    
Averages and records for this station are not official NWS values.
T = Trace of Precipitation, MM = Missing Value Source: NWS Daily Summary

Daily Weather History Graph

Daily Weather History Graph

Search for Another Location

Airport:

Trip Planner

Search our weather history database for the weather conditions in past years. The results will help you decide how hot, cold, wet, or windy it might be!

Date:

Astronomy

Jan. 22, 2013 Rise Set
Actual Time 7:29 AM EST 4:59 PM EST
Civil Twilight 6:58 AM EST 5:31 PM EST
Nautical Twilight 6:22 AM EST 6:06 PM EST
Astronomical Twilight 5:48 AM EST 6:40 PM EST
Moon 1:19 PM EST (1/22) 3:50 AM EST (1/22)
Length of Visible Light 10h 33m
Length of Day
9h 30m
Waxing Gibbous, 82% of the Moon is Illuminated
Jan 22
Waxing Gibbous
Jan 26
Full
Feb 3
Last Quarter
Feb 10
New
Feb 17
First Quarter

Hourly Weather History & Observations

Time (EST) Temp. Windchill Dew Point Humidity Pressure Visibility Wind Dir Wind Speed Gust Speed Precip Events Conditions
12:01 AM 6.8 °F - 3.2 °F 85% 29.87 in 10.0 mi Calm Calm - N/A   Overcast
12:05 AM 6.8 °F - 3.2 °F 85% 29.87 in 10.0 mi Calm Calm - N/A   Overcast
12:07 AM 6.8 °F -0.1 °F 3.2 °F 85% 29.87 in 10.0 mi NW 3.5 mph - N/A Snow Light Snow
12:08 AM 6.8 °F -2.0 °F 3.2 °F 85% 29.87 in 9.0 mi WNW 4.6 mph - N/A Snow Light Snow
12:34 AM 6.8 °F - 5.0 °F 92% 29.85 in 4.0 mi Calm Calm - N/A Snow Light Snow
12:39 AM 6.8 °F - 5.0 °F 92% 29.85 in 4.0 mi Calm Calm - N/A Snow Light Snow
12:40 AM 6.8 °F - 5.0 °F 92% 29.85 in 4.0 mi Calm Calm - N/A Snow Light Snow
12:42 AM 6.8 °F - 5.0 °F 92% 29.85 in 4.0 mi Calm Calm - N/A Snow Light Snow
12:45 AM 6.8 °F - 5.0 °F 92% 29.84 in 5.0 mi Calm Calm - N/A Snow Light Snow
12:53 AM 6.8 °F - 3.2 °F 85% 29.84 in 10.0 mi Calm Calm - N/A   Overcast
12:55 AM 6.6 °F - 3.9 °F 89% 29.84 in 10.0 mi Calm Calm - 0.00 in   Mostly Cloudy
1:03 AM 5.0 °F - 3.2 °F 92% 29.84 in 10.0 mi Calm Calm - N/A   Mostly Cloudy
1:18 AM 5.0 °F - 3.2 °F 92% 29.84 in 10.0 mi Calm Calm - N/A   Scattered Clouds
1:29 AM 5.0 °F -4.1 °F 3.2 °F 92% 29.84 in 2.5 mi South 4.6 mph - N/A   Partly Cloudy
1:34 AM 3.2 °F -4.2 °F -0.4 °F 85% 29.84 in 3.0 mi SW 3.5 mph - N/A   Partly Cloudy
1:39 AM 3.2 °F -4.2 °F -0.4 °F 85% 29.84 in 2.5 mi SSW 3.5 mph - N/A   Clear
1:41 AM 3.2 °F -6.2 °F -0.4 °F 85% 29.84 in 2.0 mi South 4.6 mph - N/A   Clear
1:50 AM 3.2 °F -4.2 °F -0.4 °F 85% 29.84 in 2.5 mi South 3.5 mph - N/A   Clear
1:53 AM 3.2 °F -6.2 °F 1.4 °F 92% 29.84 in 3.0 mi South 4.6 mph - N/A   Clear
1:55 AM 3.6 °F -3.8 °F 1.2 °F 90% 29.84 in 3.0 mi South 3.5 mph - N/A   Clear
2:09 AM 1.4 °F -6.2 °F -2.2 °F 85% 29.85 in 2.5 mi SSW 3.5 mph - N/A   Clear
2:14 AM 1.4 °F -8.3 °F -0.4 °F 92% 29.85 in 3.0 mi South 4.6 mph - N/A   Clear
2:55 AM 2.7 °F -6.8 °F -0.2 °F 88% 29.85 in 10.0 mi SSW 4.6 mph - N/A   Partly Cloudy
3:55 AM 5.2 °F -3.8 °F 2.3 °F 88% 29.86 in 10.0 mi SW 4.6 mph - N/A   Scattered Clouds
4:55 AM 5.7 °F -4.8 °F 1.9 °F 84% 29.87 in 10.0 mi WSW 5.8 mph - N/A   Clear
5:55 AM 7.2 °F 0.3 °F 2.7 °F 82% 29.89 in 10.0 mi West 3.5 mph - N/A   Partly Cloudy
6:55 AM 6.4 °F -2.4 °F 2.1 °F 82% 29.91 in 10.0 mi SSW 4.6 mph - N/A   Scattered Clouds
6:58 AM 6.8 °F -0.1 °F 1.4 °F 79% 29.91 in 10.0 mi SW 3.5 mph - N/A   Mostly Cloudy
7:02 AM 6.8 °F -2.0 °F 1.4 °F 79% 29.91 in 10.0 mi SW 4.6 mph - N/A   Mostly Cloudy
7:06 AM 6.8 °F -2.0 °F 1.4 °F 79% 29.91 in 10.0 mi WSW 4.6 mph - N/A   Mostly Cloudy
7:10 AM 6.8 °F -2.0 °F 1.4 °F 79% 29.91 in 10.0 mi WSW 4.6 mph - N/A   Mostly Cloudy
7:13 AM 6.8 °F -3.5 °F 3.2 °F 85% 29.91 in 10.0 mi WSW 5.8 mph - N/A   Mostly Cloudy
7:29 AM 6.8 °F -0.1 °F 3.2 °F 85% 29.92 in 10.0 mi West 3.5 mph - N/A   Overcast
7:47 AM 8.6 °F 2.0 °F 3.2 °F 79% 29.92 in 10.0 mi West 3.5 mph - N/A   Overcast
7:55 AM 7.9 °F -0.7 °F 4.1 °F 85% 29.92 in 10.0 mi West 4.6 mph - N/A   Overcast
8:41 AM 8.6 °F -2.6 °F 5.0 °F 85% 29.94 in 10.0 mi WNW 6.9 mph - N/A   Scattered Clouds
8:55 AM 8.8 °F -1.1 °F 4.1 °F 81% 29.94 in 10.0 mi West 5.8 mph - N/A   Scattered Clouds
9:09 AM 8.6 °F -3.7 °F 3.2 °F 79% 29.94 in 10.0 mi WNW 8.1 mph - N/A   Partly Cloudy
9:22 AM 8.6 °F -2.6 °F 3.2 °F 79% 29.95 in 10.0 mi NW 6.9 mph - N/A Snow Light Snow
9:24 AM 8.6 °F 0.1 °F 3.2 °F 79% 29.95 in 10.0 mi NNW 4.6 mph - N/A Snow Light Snow
9:32 AM 8.6 °F -1.3 °F 3.2 °F 79% 29.96 in 10.0 mi WNW 5.8 mph - N/A Snow Light Snow
9:55 AM 9.0 °F -0.9 °F 3.9 °F 80% 29.97 in 9.0 mi West 5.8 mph - 0.00 in Snow Light Snow
10:15 AM 8.6 °F -1.3 °F 3.2 °F 79% 29.98 in 10.0 mi Variable 5.8 mph - N/A Snow Light Snow
10:20 AM 8.6 °F 2.0 °F 3.2 °F 79% 29.98 in 10.0 mi WNW 3.5 mph - N/A Snow Light Snow
10:21 AM 8.6 °F 0.1 °F 3.2 °F 79% 29.98 in 10.0 mi Variable 4.6 mph - N/A   Overcast
10:26 AM 8.6 °F -1.3 °F 3.2 °F 79% 29.98 in 10.0 mi West 5.8 mph - N/A Snow Light Snow
10:35 AM 8.6 °F 0.1 °F 3.2 °F 79% 29.99 in 10.0 mi Variable 4.6 mph - N/A   Overcast
10:55 AM 8.8 °F -2.4 °F 2.7 °F 76% 29.99 in 10.0 mi West 6.9 mph - 0.00 in   Overcast
11:55 AM 10.0 °F -0.9 °F 1.4 °F 68% 30.00 in 10.0 mi WNW 6.9 mph - N/A   Partly Cloudy
12:55 PM 10.0 °F 0.4 °F -0.6 °F 62% 29.99 in 10.0 mi Variable 5.8 mph - N/A   Partly Cloudy
1:55 PM 9.7 °F -0.1 °F -3.3 °F 56% 30.00 in 10.0 mi Variable 5.8 mph - N/A   Partly Cloudy
2:55 PM 9.9 °F -4.0 °F -9.0 °F 42% 30.03 in 10.0 mi WNW 10.4 mph 16.1 mph N/A   Partly Cloudy
3:55 PM 9.0 °F 0.6 °F -9.2 °F 44% 30.05 in 10.0 mi Variable 4.6 mph - N/A   Clear
4:55 PM 8.1 °F -3.2 °F -12.1 °F 40% 30.07 in 10.0 mi Variable 6.9 mph - N/A   Clear
5:55 PM 7.2 °F -1.5 °F -10.7 °F 44% 30.09 in 10.0 mi WNW 4.6 mph - N/A   Clear
6:55 PM 7.0 °F -1.7 °F -10.3 °F 45% 30.10 in 10.0 mi WNW 4.6 mph - N/A   Clear
7:55 PM 5.9 °F -8.0 °F -11.9 °F 44% 30.12 in 10.0 mi WNW 9.2 mph - N/A   Clear
8:55 PM 4.1 °F -6.7 °F -11.9 °F 48% 30.14 in 10.0 mi NW 5.8 mph - N/A   Clear
9:55 PM 3.2 °F -15.3 °F -16.2 °F 40% 30.14 in 10.0 mi WNW 15.0 mph 23.0 mph N/A   Clear
10:55 PM 0.1 °F -16.0 °F -15.5 °F 48% 30.16 in 10.0 mi NW 10.4 mph 17.3 mph N/A   Clear
11:55 PM -1.3 °F -14.5 °F -14.8 °F 53% 30.17 in 10.0 mi Variable 6.9 mph - N/A   Clear